Location: Newark
(35.6799°N, 139.7636°E)
Time: 21:25:46
(UTC+00:00)

S-56A Canister/Altair - Visible Passes

Search period start: 07 December 2019 00:00
Search period end: 17 December 2019 00:00
Orbit: 633 x 2499 km, 38.9° (Epoch: 06 December)

Date Brightness Start Highest point End Pass type
(mag) Time Alt. Az. Time Alt. Az. Time Alt. Az.
07 Dec 10.1 08:06:07 10° WNW 08:17:28 47° SW 08:25:12 10° SSE visible
08 Dec 11.1 09:42:57 10° W 09:47:19 14° SW 09:51:04 10° SSW visible
09 Dec 11.1 09:08:00 10° W 09:14:41 18° SW 09:20:03 10° SSW visible
10 Dec 11.0 08:33:30 10° W 08:41:59 23° SW 08:48:31 10° S visible
11 Dec 11.1 07:59:12 10° W 08:09:12 29° SW 08:16:42 10° S visible
11 Dec 12.0 20:59:12 10° SSE 21:06:03 17° SE 21:13:54 10° E visible
12 Dec 12.0 20:28:21 10° SSE 20:33:09 13° ESE 20:38:27 10° E visible
14 Dec 11.9 08:30:33 10° WSW 08:33:12 11° WSW 08:35:40 10° SW visible
15 Dec 11.9 07:54:14 10° W 08:00:25 15° WSW 08:05:47 10° SSW visible
15 Dec 11.2 20:48:22 10° S 20:57:12 32° SE 21:08:36 10° ENE visible
16 Dec 11.2 20:16:23 10° S 20:24:15 26° SE 20:34:20 10° E visible
